Date,TemperatureHighF,TemperatureAvgF,TemperatureLowF,DewpointHighF,DewpointAvgF,DewpointLowF,HumidityHigh,HumidityAvg,HumidityLow,PressureMaxIn,PressureMinIn,WindSpeedMaxMPH,WindSpeedAvgMPH,GustSpeedMaxMPH,PrecipitationSumIn
2013-2-1,27.6,23.4,17.3,18.7,10.5,4.1,85,58,46,30.19,29.62,20,5,20,0.00
2013-2-2,23.8,18.1,9.6,19.4,10.7,4.1,89,73,56,30.25,30.08,11,1,0,0.00
2013-2-3,28.9,20.2,10.6,15.2,12.8,8.3,92,74,48,30.09,29.81,11,1,0,0.00
2013-2-4,26.7,20.2,12.0,16.4,9.7,4.0,91,65,42,30.00,29.81,23,3,23,0.00
2013-2-5,29.0,17.9,6.9,16.0,9.3,3.9,90,70,46,30.08,29.94,8,0,0,0.00
2013-2-6,35.6,25.8,16.7,25.1,11.9,-2.0,91,61,22,30.41,29.94,23,3,23,0.00
2013-2-7,21.7,16.5,10.3,7.1,4.5,1.5,73,59,46,30.62,30.40,5,1,0,0.00
2013-2-8,28.9,23.0,16.8,24.7,18.6,6.4,93,83,63,30.45,29.89,11,1,0,0.00
2013-2-9,27.0,17.9,4.0,22.1,10.0,0.7,93,73,38,30.42,29.90,11,2,0,0.21
2013-2-10,29.9,12.4,-3.3,9.8,3.5,-6.0,89,70,33,30.58,30.33,4,0,0,0.05
2013-2-11,40.2,30.8,14.5,37.4,27.2,7.8,95,86,69,30.33,29.68,18,1,18,0.13
2013-2-12,40.9,37.1,33.1,31.3,28.8,25.8,83,72,65,29.93,29.71,22,4,22,0.01
2013-2-13,38.2,32.5,27.7,27.4,24.6,20.9,84,73,52,29.92,29.78,10,1,0,0.00
2013-2-14,42.9,32.1,24.1,26.5,23.1,19.0,83,70,47,29.99,29.77,12,1,12,0.00
2013-2-15,46.6,37.8,30.0,31.0,26.6,22.4,91,66,42,30.03,29.91,21,3,21,0.00
2013-2-16,36.4,30.0,23.1,27.6,18.0,9.8,91,62,41,30.04,29.91,14,2,14,0.00
2013-2-17,25.8,19.6,12.4,10.2,4.0,-0.8,66,51,34,29.97,29.71,22,4,22,0.00
2013-2-18,32.4,19.5,9.0,9.8,0.6,-3.7,67,46,22,30.22,29.97,17,3,17,0.00
2013-2-19,41.0,27.8,14.8,32.9,20.3,8.8,96,74,48,30.21,29.66,18,1,18,0.06
2013-2-20,33.9,28.0,24.9,30.3,18.9,14.7,89,69,53,29.89,29.67,26,4,26,0.02
2013-2-21,31.7,23.2,17.8,16.4,11.5,6.3,74,61,45,30.43,29.89,17,3,17,0.01
2013-2-22,37.0,28.9,21.3,25.5,21.2,15.9,85,73,57,30.47,30.28,5,0,0,0.04
2013-2-23,35.2,33.5,32.1,32.4,29.5,23.8,97,86,72,30.28,29.92,5,0,0,0.02
2013-2-24,36.9,34.0,32.0,35.9,32.5,29.8,98,94,84,30.01,29.80,11,0,0,0.21
2013-2-25,41.1,33.0,25.3,32.5,28.6,23.9,96,84,64,30.28,30.01,5,0,0,0.10
2013-2-26,43.8,34.8,26.8,33.2,29.6,25.5,97,82,61,30.36,30.08,8,0,0,0.00
2013-2-27,39.6,35.8,32.3,37.4,33.7,27.4,97,92,73,30.09,29.63,8,1,0,0.75
2013-2-28,42.6,36.7,33.0,38.1,34.8,32.2,98,93,80,29.65,29.59,8,0,0,0.07